Flag for Australia Weather past 2 weeks in Hobart, Tasmania, Australia

Now
48 °F

Partly sunny.


Feels Like: 45 °F
Forecast: 51 / 62 °F
Wind: 8 mph from Northwest

Location: Hobart Airport


UV Index: 0 (Low)

Visibility: N/A


Pressure: 30.07 "Hg

Humidity: 62%

Dew point: 36 °F

Location of HobartLocation

Historic Weather in Hobart

°F

Hobart temperature yesterday

Maximum temperature yesterday: 66 °F (at 2:30 PM)
Minimum temperature yesterday: 43 °F (at 1:30 AM)
Average temperature yesterday: 52 °F

Past Weeks' High & Low Weather Summary

 TemperatureHumidityPressure
High72 °F (Apr 9, 2:00 PM)100% (Apr 7, 6:00 AM)30.39 "Hg (Apr 7, 6:00 AM)
Low39 °F (Apr 21, 3:00 AM)34% (Apr 13, 2:00 PM)29.71 "Hg (Apr 18, 10:00 AM)
Average57 °F69%30.11 "Hg
* Reported Apr 6 9:00 AM — Apr 21 9:00 AM, Hobart, Weather by CustomWeather, © 2014

Note: Actual official high and low records may vary slightly from our data, if they occured in-between our weather recording intervals... More about our weather records

Advertising

Historic Weather Conditions — Data for Previous 24 hours

 ConditionsComfort  
Time TempWeatherWind HumidityBarometerVisibility
9:00 AM
Apr 21
46 °FBroken clouds.6 mph66%30.07 "HgN/A
8:30 AM43 °FBroken clouds.9 mph76%30.09 "HgN/A
8:00 AM43 °FPartly sunny.7 mph76%30.09 "HgN/A
7:00 AM39 °FPartly sunny.9 mph81%30.07 "HgN/A
6:30 AM41 °FScattered clouds.10 mph76%30.07 "HgN/A
6:00 AM39 °FSunny.13 mph81%30.07 "Hg10 mi
5:30 AM41 °FPassing clouds.8 mph81%30.04 "HgN/A
5:00 AM43 °FClear.12 mph76%30.04 "Hg10 mi
4:30 AM43 °FClear.10 mph76%30.04 "Hg10 mi
4:00 AM41 °FClear.10 mph81%30.04 "Hg10 mi
3:30 AM41 °FClear.9 mph81%30.01 "Hg10 mi
3:00 AM39 °FClear.6 mph87%30.01 "Hg10 mi
2:30 AM43 °FClear.8 mph71%30.01 "Hg10 mi
2:00 AM43 °FClear.7 mph71%30.01 "Hg10 mi
1:30 AM43 °FPassing clouds.5 mph71%30.01 "HgN/A
1:00 AM45 °FPassing clouds.8 mph71%30.01 "HgN/A
12:30 AM43 °FPassing clouds.8 mph76%30.01 "HgN/A
12:00 AM41 °FPassing clouds.3 mph76%30.01 "HgN/A
11:30 PM
Apr 20
43 °FPassing clouds.5 mph76%29.98 "HgN/A
11:00 PM45 °FPassing clouds.8 mph71%29.98 "HgN/A
10:30 PM48 °FPassing clouds.7 mph62%29.98 "HgN/A
10:00 PM46 °FPassing clouds.6 mph71%29.98 "HgN/A
9:30 PM46 °FPassing clouds.1 mph76%29.98 "HgN/A
9:00 PM50 °FSprinkles. Passing clouds.14 mph67%29.95 "HgN/A
8:30 PM52 °FPassing clouds.21 mph54%29.95 "HgN/A
8:00 PM52 °FPassing clouds.10 mph62%29.92 "HgN/A
7:30 PM52 °FPassing clouds.7 mph62%29.89 "HgN/A
7:00 PM54 °FPassing clouds.9 mph67%29.89 "HgN/A
6:30 PM55 °FPartly cloudy.10 mph63%29.86 "HgN/A
6:00 PM57 °FPartly cloudy.13 mph63%29.86 "HgN/A
5:30 PM55 °FPartly cloudy.8 mph77%29.83 "HgN/A
5:00 PM57 °FScattered showers. Passing clouds.13 mph72%29.80 "HgN/A
4:30 PM61 °FPassing clouds.8 mph63%29.80 "HgN/A
4:00 PM63 °FPartly sunny.13 mph52%29.77 "HgN/A
3:30 PM64 °FSprinkles. Partly sunny.9 mph49%29.77 "HgN/A
3:00 PM63 °FSprinkles. Partly sunny.15 mph49%29.74 "HgN/A
2:30 PM66 °FScattered showers. Broken clouds.15 mph40%29.74 "HgN/A
2:00 PM64 °FBroken clouds.15 mph46%29.71 "HgN/A
1:30 PM63 °FPartly sunny.15 mph49%29.74 "HgN/A
1:00 PM63 °FScattered clouds.14 mph45%29.74 "HgN/A
12:30 PM63 °FScattered clouds.16 mph45%29.74 "HgN/A
12:00 PM63 °FScattered clouds.17 mph45%29.77 "HgN/A
11:30 AM61 °FBroken clouds.16 mph48%29.80 "HgN/A
11:00 AM59 °FBroken clouds.18 mph51%29.80 "HgN/A
10:30 AM61 °FBroken clouds.13 mph45%29.80 "HgN/A
10:00 AM57 °FBroken clouds.10 mph51%29.83 "HgN/A
Weather by CustomWeather, © 2014

See weather overview